Overview Statistics Trail Chart Weather Telemetry Raw packets
 

This is the latest recevied weather packets stored in our database for station/object WW6Q. If no packets are shown the sender has not sent any weather packets the latest 10 day(s).

<< 102 103 104 105 106 107 108 >>
Time Temp. Humidity Pressure Rain* Wind** Luminosity Snow
1787858095 27.22° C 54% 1015 hPa 0 mm - 804 W/m² -
1787857791 26.67° C 57% 1015 hPa 0 mm - 776 W/m² -
1787857487 26.67° C 57% 1014.9 hPa 0 mm - 770 W/m² -
1787857185 26.67° C 58% 1015.1 hPa 0 mm - 778 W/m² -
1787856880 27.22° C 59% 1015 hPa 0 mm - 314 W/m² -
1787856580 28.33° C 52% 1015 hPa 0 mm - 192 W/m² -
1787856275 27.78° C 54% 1014.8 hPa 0 mm - 816 W/m² -
1787855971 27.78° C 54% 1015 hPa 0 mm - 799 W/m² -
1787855670 27.22° C 60% 1015.2 hPa 0 mm - 821 W/m² -
1787855365 26.67° C 62% 1015.1 hPa 0 mm - 843 W/m² -
1787855061 26.67° C 55% 1015.1 hPa 0 mm - 827 W/m² -
1787854756 26.67° C 58% 1015.1 hPa 0 mm - 829 W/m² -
1787854455 26.67° C 55% 1015.2 hPa 0 mm - 838 W/m² -
1787854151 26.11° C 60% 1015.2 hPa 0 mm - 869 W/m² -
1787853845 25.56° C 60% 1015.3 hPa 0 mm - 864 W/m² -
1787853543 26.11° C 62% 1015.2 hPa 0 mm - 154 W/m² -
1787853238 26.11° C 60% 1015.1 hPa 0 mm - 932 W/m² -
1787852938 25.56° C 55% 1015.2 hPa 0 mm - 892 W/m² -
1787852633 25.56° C 58% 1015 hPa 0 mm - 958 W/m² -
1787852332 25.56° C 63% 1015.4 hPa 0 mm - 899 W/m² -
1787852031 26.11° C 57% 1015.2 hPa 0 mm - 198 W/m² -
1787851731 26.11° C 59% 1015.3 hPa 0 mm - 898 W/m² -
1787851425 25.56° C 62% 1015.3 hPa 0 mm - 804 W/m² -
1787851121 25.56° C 59% 1015.2 hPa 0 mm - 805 W/m² -
1787850816 26.11° C 60% 1015.4 hPa 0 mm - 224 W/m² -

* Rain latest hour (hover to see other rain measurements)
** Current wind speed in m/s (hover to see current wind gust speed)